Regional Weather Roundup
Issued by NWS

Home | Current Version | Previous Version | Text Only | Print | Product List | Glossary On
Versions: 1 2 3 4 5 6 7 8 9 10 11 12 13 14 15 16 17 18 19 20 21 22 23 24 25 26 27 28 29 30 31 32 33 34 35 36 37 38 39 40 41 42 43 44 45 46 47 48 49 50
000
ASUS45 KBOI 050310
RWRID
WEATHER ROUNDUP FOR IDAHO
NATIONAL WEATHER SERVICE BOISE ID
900 PM MDT MON MAY 04 2015

NOTE: "FAIR" INDICATES FEW OR NO CLOUDS BELOW 12000 FEET
WITH NO SIGNIFICANT WEATHER AND/OR OBSTRUCTIONS TO VISIBILITY

IDZ012-014-050400-
SOUTHWEST IDAHO


CITY           SKY/WX    TMP DP  RH WIND       PRES   REMARKS
BOISE          MOCLDY    77  33  20 W3        29.73R
CALDWELL       MOCLDY    77  36  22 CALM      29.72S
MOUNTAIN HOME  MOCLDY    69  35  28 S3        29.74R
$$

IDZ016-017-050400-
SOUTHCENTRAL IDAHO


CITY           SKY/WX    TMP DP  RH WIND       PRES   REMARKS
BURLEY         CLOUDY    61  40  45 W5        29.83R
JEROME         CLOUDY    63  38  39 SE7       29.83R
TWIN FALLS     CLOUDY    63  39  41 S14       29.83R
$$

IDZ019>023-050400-
SOUTHEAST IDAHO


CITY           SKY/WX    TMP DP  RH WIND       PRES   REMARKS
IDAHO FALLS    CLOUDY    65  41  41 W10       29.88R
POCATELLO      PTCLDY    63  36  36 S8        29.86R
REXBURG        CLOUDY    65  32  29 S7        29.87R
$$

IDZ006-010-011-018-031-032-050400-
CENTRAL IDAHO MOUNTAINS


CITY           SKY/WX    TMP DP  RH WIND       PRES   REMARKS
MCCALL         CLEAR     63  31  30 CALM      29.82S
HAILEY         MOCLDY    59  39  47 CALM      29.92S
STANLEY          N/A     50  32  50 S5        29.95R
SALMON           N/A     66  32  28 SW6       29.78S
CHALLIS        PTCLDY    64  29  26 CALM      29.85R
$$

IDZ002-004-006-007-026-050400-
NORTHERN IDAHO


CITY           SKY/WX    TMP DP  RH WIND       PRES   REMARKS
LEWISTON       MOCLDY    74  29  19 W8        29.75R
LOWELL           N/A     61  49  64 CALM      29.70R
COEUR D`ALENE  CLEAR     63  30  29 SW9       29.75S
MULLAN PASS    CLEAR     53  20  27 W7        29.89S
$$


USA.gov is the U.S. government's official web portal to all federal, state and local government web resources and services.